Find Starlink 31357

NORAD ID: 59502 Int'l Des: 2024-071 Owner: SPXS Country: US Constellation: starlink operational
LEOCIRCULAR

現在のビュー

3D地球を読み込み中...

About Starlink 31357

Starlink 31357 (NORAD 59502) is a starlink constellation satellite (v2 mini) launched Apr 13, 2024 by SPXS of US. It operates in LEO, CIRCULAR orbit with a mass of 730.00 kg.

Starlink 31357について

説明を読み込み中...

次回通過

Passes for default location (London). Set your location on the main map for personalized predictions.

高度履歴

Loading altitude history...

軌道要素

1 59502U 24071U 26195.42211907 -.00000594 00000-0 -12051-4 0 9997
2 59502 43.0027 344.3699 0001828 266.8665 93.1977 15.27562491127586
Epoch: Jul 14, 2026 • Age: 19 hours

現在のステータス

高度 483.5 km
遠地点 / 近地点 N/A
速度 7.63 km/s
衛星直下点 23.41°N, 2.43°W
打ち上げ日 Apr 13, 2024
運用期間 2.2 years
タイプ internet

技術仕様

分類 Payload
質量 730.00 kg
乾燥質量 700.00 kg
総質量 730.00 kg
長さ 0.30 m
直径 4.10 m
スパン 29.00 m
形状 Box + pan
製造者 SPXS
バスタイプ Starlink V2M
フェーズステータス In Orbit
所有者/国 SPXS/US

Most Searched